WJA127 CYLW-CYVR

Flight info

Callsign WJA127
Flight time 0h 28m
Altitude 22000
Route MRYT6 MERYT DCT BOOTH CANUC6
Aircraft B738/M-SDE2E3FGHIRWXY/LB1

Departure

Time 2026-05-04 01:57
Airport Kelowna International Airport (CYLW)

Arrival

Time 2026-05-04 02:25
Airport Vancouver International Airport (CYVR)
Time Latitude Longitude Altitude Speed Heading
2026-05-04 01:43 49.95062 -119.38013 1372 ft 0 kts 306°
2026-05-04 01:48 49.95059 -119.38006 1372 ft 2 kts 303°
2026-05-04 01:48 49.95050 -119.37981 1370 ft 3 kts 284°
2026-05-04 01:49 49.95047 -119.37951 1370 ft 3 kts 257°
2026-05-04 01:49 49.95055 -119.37924 1371 ft 3 kts 224°
2026-05-04 01:49 49.95070 -119.37909 1372 ft 3 kts 187°
2026-05-04 01:49 49.95077 -119.37908 1371 ft 0 kts 175°
2026-05-04 01:52 49.95068 -119.37906 1372 ft 3 kts 175°
2026-05-04 01:53 49.95031 -119.37902 1371 ft 8 kts 175°
2026-05-04 01:53 49.94972 -119.37881 1370 ft 9 kts 140°
2026-05-04 01:53 49.94922 -119.37825 1370 ft 9 kts 174°
2026-05-04 01:53 49.94858 -119.37815 1368 ft 9 kts 174°
2026-05-04 01:54 49.94799 -119.37787 1367 ft 9 kts 146°
2026-05-04 01:54 49.94760 -119.37715 1366 ft 9 kts 128°
2026-05-04 01:54 49.94714 -119.37656 1365 ft 10 kts 165°
2026-05-04 01:54 49.94636 -119.37638 1364 ft 12 kts 172°
2026-05-04 01:55 49.94560 -119.37579 1360 ft 12 kts 137°
2026-05-04 01:55 49.94522 -119.37562 1359 ft 3 kts 220°
2026-05-04 01:55 49.94520 -119.37598 1359 ft 4 kts 288°
2026-05-04 01:55 49.94550 -119.37630 1361 ft 8 kts 347°
2026-05-04 01:56 49.94664 -119.37646 1364 ft 37 kts 354°
2026-05-04 01:56 49.95168 -119.37720 1371 ft 107 kts 355°
2026-05-04 01:56 49.96117 -119.37861 1402 ft 165 kts 354°
2026-05-04 01:56 49.97380 -119.38034 1746 ft 195 kts 354°
2026-05-04 01:57 49.98826 -119.38216 2074 ft 224 kts 353°
2026-05-04 01:57 50.00463 -119.38536 2307 ft 248 kts 352°
2026-05-04 01:57 50.02169 -119.39192 2839 ft 256 kts 341°
2026-05-04 01:57 50.03877 -119.40126 3505 ft 257 kts 341°
2026-05-04 01:58 50.05505 -119.41040 4683 ft 241 kts 340°
2026-05-04 01:58 50.07062 -119.41809 5676 ft 234 kts 339°
2026-05-04 01:58 50.08555 -119.42695 6674 ft 225 kts 340°
2026-05-04 01:58 50.10067 -119.43537 7253 ft 241 kts 339°
2026-05-04 01:59 50.11692 -119.44595 7590 ft 261 kts 325°
2026-05-04 01:59 50.12938 -119.46644 8421 ft 267 kts 297°
2026-05-04 01:59 50.13234 -119.49521 9231 ft 278 kts 264°
2026-05-04 01:59 50.12781 -119.52473 10016 ft 282 kts 261°
2026-05-04 02:00 50.12364 -119.55489 10398 ft 298 kts 261°
2026-05-04 02:00 50.11938 -119.58776 10592 ft 322 kts 261°
2026-05-04 02:00 50.11490 -119.62321 10803 ft 343 kts 262°
2026-05-04 02:00 50.11027 -119.66018 11363 ft 350 kts 262°
2026-05-04 02:01 50.10560 -119.69748 12094 ft 354 kts 262°
2026-05-04 02:01 50.10084 -119.73538 12796 ft 357 kts 262°
2026-05-04 02:01 50.09606 -119.77360 13472 ft 362 kts 262°
2026-05-04 02:01 50.09120 -119.81248 14119 ft 366 kts 262°
2026-05-04 02:02 50.08632 -119.85156 14770 ft 369 kts 262°
2026-05-04 02:02 50.08138 -119.89090 15418 ft 372 kts 262°
2026-05-04 02:02 50.07639 -119.93064 16056 ft 375 kts 262°
2026-05-04 02:02 50.07141 -119.97024 16634 ft 380 kts 262°
2026-05-04 02:03 50.06627 -120.01094 17253 ft 383 kts 262°
2026-05-04 02:03 50.06110 -120.05181 17893 ft 386 kts 262°
2026-05-04 02:03 50.05586 -120.09306 18449 ft 390 kts 262°
2026-05-04 02:03 50.05057 -120.13465 18941 ft 394 kts 262°
2026-05-04 02:04 50.04519 -120.17672 19469 ft 398 kts 262°
2026-05-04 02:04 50.03976 -120.21908 20015 ft 400 kts 262°
2026-05-04 02:04 50.03428 -120.26168 20560 ft 403 kts 262°
2026-05-04 02:04 50.02874 -120.30468 21088 ft 406 kts 262°
2026-05-04 02:05 50.02315 -120.34791 21612 ft 409 kts 262°
2026-05-04 02:05 50.01757 -120.39091 22120 ft 412 kts 262°
2026-05-04 02:05 50.01186 -120.43480 22619 ft 414 kts 262°
2026-05-04 02:05 50.00612 -120.47869 23242 ft 413 kts 262°
2026-05-04 02:06 50.00037 -120.52264 23552 ft 421 kts 262°
2026-05-04 02:06 49.99446 -120.56786 23567 ft 433 kts 262°
2026-05-04 02:06 49.98835 -120.61437 23569 ft 444 kts 262°
2026-05-04 02:06 49.98206 -120.66198 23572 ft 455 kts 262°
2026-05-04 02:07 49.97559 -120.71074 23566 ft 465 kts 262°
2026-05-04 02:07 49.92801 -121.05011 23533 ft 497 kts 256°
2026-05-04 02:07 49.88230 -121.20731 23437 ft 501 kts 234°
2026-05-04 02:07 49.85803 -121.24471 23494 ft 482 kts 223°
2026-05-04 02:08 49.83342 -121.27847 23368 ft 463 kts 227°
2026-05-04 02:08 49.81188 -121.31420 23237 ft 445 kts 233°
2026-05-04 02:08 49.79342 -121.35138 22848 ft 434 kts 238°
2026-05-04 02:08 49.77683 -121.39008 22191 ft 430 kts 241°
2026-05-04 02:09 49.76127 -121.42953 21558 ft 428 kts 242°
2026-05-04 02:09 49.74623 -121.46909 20950 ft 425 kts 242°
2026-05-04 02:09 49.73136 -121.50844 20459 ft 422 kts 242°
2026-05-04 02:09 49.72155 -121.53429 20120 ft 419 kts 242°
2026-05-04 02:10 49.70680 -121.57288 19588 ft 416 kts 242°
2026-05-04 02:10 49.68722 -121.62360 18975 ft 413 kts 242°
2026-05-04 02:10 49.67257 -121.66130 18622 ft 405 kts 241°
2026-05-04 02:10 49.66281 -121.68633 18444 ft 400 kts 241°
2026-05-04 02:11 49.64851 -121.72293 18009 ft 396 kts 241°
2026-05-04 02:11 49.63427 -121.75928 17349 ft 397 kts 241°
2026-05-04 02:11 49.62015 -121.79539 16721 ft 398 kts 240°
2026-05-04 02:11 49.60587 -121.83189 16097 ft 398 kts 240°
2026-05-04 02:12 49.59155 -121.86840 15473 ft 397 kts 240°
2026-05-04 02:12 49.57723 -121.90485 14977 ft 394 kts 240°
2026-05-04 02:12 49.56330 -121.94024 14920 ft 379 kts 240°
2026-05-04 02:12 49.54988 -121.97430 14780 ft 367 kts 240°
2026-05-04 02:13 49.53665 -122.00786 14396 ft 364 kts 240°
2026-05-04 02:13 49.52360 -122.04087 14002 ft 361 kts 240°
2026-05-04 02:13 49.51071 -122.07337 13514 ft 361 kts 239°
2026-05-04 02:13 49.49745 -122.10671 13012 ft 360 kts 239°
2026-05-04 02:14 49.48450 -122.13915 12502 ft 361 kts 239°
2026-05-04 02:14 49.47102 -122.17171 12001 ft 361 kts 237°
2026-05-04 02:14 49.45683 -122.20348 11477 ft 361 kts 236°
2026-05-04 02:14 49.44246 -122.23498 11010 ft 355 kts 236°
2026-05-04 02:15 49.42845 -122.26573 10520 ft 347 kts 236°
2026-05-04 02:15 49.41482 -122.29586 10037 ft 339 kts 236°
2026-05-04 02:15 49.40154 -122.32542 9578 ft 332 kts 237°
2026-05-04 02:15 49.38855 -122.35438 9110 ft 326 kts 236°
2026-05-04 02:16 49.37588 -122.38260 9019 ft 314 kts 236°
2026-05-04 02:16 49.36380 -122.40952 9002 ft 302 kts 236°
2026-05-04 02:16 49.35179 -122.43532 8887 ft 294 kts 232°
2026-05-04 02:16 49.33830 -122.45880 8470 ft 298 kts 228°
2026-05-04 02:17 49.32420 -122.48204 8065 ft 295 kts 227°
2026-05-04 02:17 49.31037 -122.50497 7670 ft 289 kts 228°
2026-05-04 02:17 49.29695 -122.52765 7327 ft 285 kts 229°
2026-05-04 02:17 49.28373 -122.55012 6967 ft 282 kts 228°
2026-05-04 02:18 49.27073 -122.57229 6685 ft 276 kts 228°
2026-05-04 02:18 49.25800 -122.59402 6418 ft 271 kts 228°
2026-05-04 02:18 49.24560 -122.61517 6152 ft 270 kts 228°
2026-05-04 02:18 49.23304 -122.63657 5877 ft 271 kts 228°
2026-05-04 02:19 49.22045 -122.65800 5604 ft 270 kts 228°
2026-05-04 02:19 49.20793 -122.67942 5333 ft 269 kts 230°
2026-05-04 02:19 49.19734 -122.70293 5063 ft 268 kts 239°
2026-05-04 02:19 49.18784 -122.72748 4796 ft 267 kts 239°
2026-05-04 02:20 49.17831 -122.75182 4529 ft 265 kts 239°
2026-05-04 02:20 49.16875 -122.77581 4258 ft 264 kts 239°
2026-05-04 02:20 49.16066 -122.80078 3978 ft 262 kts 258°
2026-05-04 02:20 49.16175 -122.82797 3741 ft 257 kts 287°
2026-05-04 02:21 49.16654 -122.85412 3493 ft 255 kts 282°
2026-05-04 02:21 49.16957 -122.88046 3231 ft 253 kts 279°
2026-05-04 02:21 49.17231 -122.90685 3058 ft 248 kts 279°
2026-05-04 02:21 49.17509 -122.93213 2907 ft 237 kts 280°
2026-05-04 02:22 49.17779 -122.95674 2604 ft 233 kts 280°
2026-05-04 02:22 49.18044 -122.98070 2312 ft 225 kts 280°
2026-05-04 02:22 49.18303 -123.00387 2035 ft 215 kts 280°
2026-05-04 02:22 49.18543 -123.02540 1755 ft 199 kts 280°
2026-05-04 02:23 49.18766 -123.04542 1496 ft 184 kts 280°
2026-05-04 02:23 49.18973 -123.06394 1271 ft 171 kts 280°
2026-05-04 02:23 49.19168 -123.08124 1027 ft 158 kts 279°
2026-05-04 02:23 49.19351 -123.09737 896 ft 149 kts 279°
2026-05-04 02:24 49.19522 -123.11284 662 ft 146 kts 280°
2026-05-04 02:24 49.19685 -123.12813 560 ft 147 kts 279°
2026-05-04 02:24 49.19852 -123.14389 351 ft 150 kts 281°
2026-05-04 02:24 49.20041 -123.15938 111 ft 146 kts 282°
2026-05-04 02:25 49.20213 -123.17399 21 ft 129 kts 279°
2026-05-04 02:25 49.20338 -123.18502 25 ft 77 kts 280°
2026-05-04 02:25 49.20380 -123.18970 23 ft 11 kts 268°
2026-05-04 02:25 49.20391 -123.19137 20 ft 17 kts 269°
2026-05-04 02:26 49.20365 -123.19307 21 ft 16 kts 250°
2026-05-04 02:26 49.20327 -123.19463 22 ft 16 kts 250°
2026-05-04 02:26 49.20296 -123.19588 22 ft 7 kts 241°
2026-05-04 02:26 49.20258 -123.19611 22 ft 6 kts 156°
2026-05-04 02:27 49.20237 -123.19530 22 ft 12 kts 99°
2026-05-04 02:27 49.20221 -123.19378 22 ft 15 kts 99°
2026-05-04 02:27 49.20205 -123.19223 22 ft 15 kts 99°
2026-05-04 02:27 49.20193 -123.19128 22 ft 14 kts 102°